Regional Weather Roundup
Issued by NWS

Home | Current Version | Previous Version | Text Only | Print | Product List | Glossary On
Versions: 1 2 3 4 5 6 7 8 9 10 11 12 13 14 15 16 17 18 19 20 21 22 23 24 25 26 27 28 29 30 31 32 33 34 35 36 37 38 39 40 41 42 43 44 45 46 47 48 49 50
000
ASUS43 KMPX 271310
RWRMN
WEATHER ROUNDUP FOR MINNESOTA
NATIONAL WEATHER SERVICE TWIN CITIES/CHANHASSEN MN
800 AM CDT TUE SEP 27 2016


NOTE: "FAIR" INDICATES FEW OR NO CLOUDS BELOW 12,000 FEET WITH NO
SIGNIFICANT WEATHER AND/OR OBSTRUCTIONS TO VISIBILITY. N/A MEANS
CURRENT SKY AND/OR WEATHER CONDITIONS ARE NOT AVAILABLE.

MNZ060>063-068>070-271400-
   Twin Cities Metro

CITY           SKY/WX    TMP DP  RH WIND       PRES   REMARKS
TWIN CITIES    PTCLDY    50  40  68 W12       29.84S
ST PAUL        CLEAR     51  41  68 W14G24    29.83F
CRYSTAL        CLEAR     50  39  66 W14       29.83S
BLAINE         CLEAR     50  43  76 W15G21    29.82S
LAKEVILLE      CLEAR     46  39  76 W12G17    29.85S
EDEN PRAIRIE   CLEAR     49  40  71 W12       29.84F
LAKEVILLE      CLEAR     46  39  76 W12G17    29.85S
SOUTH ST PAUL  CLEAR     51  40  67 W10G16    29.82F
LAKE ELMO      FAIR      50  41  71 NW12G20   29.82S
$$
MNZ001>005-007-008-013>017-022>024-027-028-271400-
   Northwest Minnesota

CITY           SKY/WX    TMP DP  RH WIND       PRES   REMARKS
BEMIDJI        CLOUDY    45  41  87 NW16G23   29.80S
HALLOCK        CLOUDY    46  43  87 NW12      29.89R
ROSEAU         CLOUDY    46  43  87 W12       29.82S
WARROAD        CLOUDY    48  45  87 NW9       29.81R
THIEF RVR FALL PTCLDY    43  41  93 NW13      29.88R
CROOKSTON      CLEAR     41  39  93 NW12      29.90S
FOSSTON        CLEAR     39  37  93 NW9       29.87S
DETROIT LAKES  CLEAR     41  37  87 NW9       29.89S
MOORHEAD       CLEAR     43  36  75 NW13      29.92F
PARK RAPIDS    CLEAR     45  39  79 NW14      29.82F
MAHNOMEN       FAIR      40  37  92 W10       29.87F
$$
MNZ006-009>011-018-025>026-271400-
   North Central Minnesota

CITY           SKY/WX    TMP DP  RH WIND       PRES   REMARKS
BAUDETTE       CLOUDY    49  41  74 NW17G28   29.76S
FLAG ISLAND    CLOUDY    48  45  87 NW18      29.76S
INTL FALLS     CLOUDY    47  44  90 NW9       29.70S
WASKISH        CLOUDY    48  45  87 W10G17    29.77F
BIG FORK       CLOUDY    48  45  87 NW8       29.73F
LONGVILLE      CLOUDY    48  43  81 NW9G18    29.77F
GRAND RAPIDS   CLOUDY    49  44  83 NW15G23   29.75S
ORR            CLOUDY    46  43  87 NW12G20   29.66S
COOK           DRIZZLE   46  45  93 W10G17    29.68F
WALKER         CLOUDY    45  41  86 W14       29.79S
$$
MNZ012-019>021-037-271400-
   Northeast Minnesota

CITY           SKY/WX    TMP DP  RH WIND       PRES   REMARKS
DULUTH         CLOUDY    49  45  86 NW17G24   29.67F
ELY            LGT RAIN  46  45  93 NW10G17   29.63S
HIBBING        CLOUDY    47  43  86 NW16G26   29.69S
EVELETH        CLOUDY    47  44  90 NW15G21   29.68S
DULUTH HARBOR  CLOUDY    54  46  76 W18G28    29.69S
TWO HARBORS    CLOUDY    52  46  82 W9G16     29.63S FOG
SILVER BAY     CLOUDY    50  46  87 W5        29.60F
GRAND MARAIS     N/A     50  42  74 NW13G22   29.52F
G MARAIS ARPRT DRIZZLE   43  37  81 NW12G23   29.53F
$$
MNZ029>031-032-039>041-046>048-054>057-064-271400-
   West Central Minnesota

CITY           SKY/WX    TMP DP  RH WIND       PRES   REMARKS
FERGUS FALLS   CLEAR     36  36 100 NW5       29.94F
MORRIS         CLEAR     41  37  87 W8        29.92S
ALEXANDRIA     CLEAR     42  38  85 W13       29.90F
ELBOW LAKE     FAIR      38  36  93 NW6       29.92S
GLENWOOD       CLEAR     39  37  93 W8        29.90F
APPLETON       CLEAR     39  36  87 NW5       29.94S
BENSON         CLEAR     39  36  87 NW6       29.92F
ORTONVILLE     CLEAR     45  37  76 CALM      29.94S
MADISON          N/A     43  39  87 W6        29.95S
WILLMAR        FAIR      43  37  81 W8        29.93S
$$
MNZ033>034-036-042>043-049>051-058-059-271400-
   Central Minnesota

CITY           SKY/WX    TMP DP  RH WIND       PRES   REMARKS
ST CLOUD       CLEAR     46  41  82 W15       29.84S
SAUK CENTRE    FAIR      43  39  85 W10       29.88S
PAYNESVILLE    CLEAR     45  39  79 W10G17    29.89S
AITKIN         CLOUDY    50  41  71 W7        29.75F
PINE RIVER     PTCLDY    45  41  87 W8        29.83F
BRAINERD       CLEAR     47  41  80 W13G21    29.80F
STAPLES        CLEAR     43  39  87 W12       29.83F
LONG PRAIRIE   FAIR      43  39  87 SW9       29.87S
LITTLE FALLS   PTCLDY    45  39  81 W7        29.84S
LITCHFIELD     CLEAR     46  43  87 W8        29.89F
BUFFALO        CLEAR     48  40  75 W12       29.87S
MAPLE LAKE     CLEAR     48  42  81 W7        29.87S
HUTCHINSON     CLEAR     44  40  86 W7        29.90S
$$
MNZ037-044-045-052-053-271400-
   East Central Minnesota

CITY           SKY/WX    TMP DP  RH WIND       PRES   REMARKS
PRINCETON      CLEAR     48  43  81 W10       29.82S
MORA           CLOUDY    45  39  81 W9        29.80S
CAMBRIDGE      CLEAR     48  39  71 W9G17     29.79F
MOOSE LAKE     CLOUDY    50  43  76 W5        29.72S
HINCKLEY       CLOUDY    50  45  81 W6        29.76S
CLOQUET        CLOUDY    50  43  76 W14G23    29.70F
MCGREGOR       CLOUDY    50  43  76 NW14G23   29.74F
$$
MNZ071>073-080-081-089-090-097-098-271400-
   Southwest Minnesota

CITY           SKY/WX    TMP DP  RH WIND       PRES   REMARKS
MONTEVIDEO     CLEAR     45  37  76 NW5       29.95F
GRANITE FALLS  CLEAR     42  39  88 W5        29.95S
CANBY          CLEAR     47  38  71 NW8       29.97S
MARSHALL       PTCLDY    44  37  76 W8        29.96S
REDWOOD FALLS  CLEAR     44  36  73 W9        29.93S
OLIVIA         CLEAR     43  37  81 W9        29.92S
PIPESTONE      CLEAR     43  37  81 W6        29.98S
WINDOM         CLEAR     43  37  81 W6        29.95S
WORTHINGTON    CLEAR     42  37  82 W10       29.98S
JACKSON        CLEAR     45  36  70 W10       29.96S
TRACY          CLEAR     47  38  73 W6        29.96S
SLAYTON        CLEAR     43  30  61 W6        29.98S
$$
MNZ065>067-074>077-082>085-091>093-271400-
   South Central Minnesota

CITY           SKY/WX    TMP DP  RH WIND       PRES   REMARKS
MANKATO        CLEAR     46  39  76 W13       29.91S
NEW ULM        CLEAR     43  37  81 W9        29.92S
ST JAMES       CLEAR     46  37  71 W9        29.95R
FAIRMONT       CLEAR     46  38  73 W12       29.94S
GLENCOE        CLEAR     47  42  83 W10G16    29.88F
FARIBAULT      CLEAR     48  39  71 W12       29.88S
OWATONNA       CLEAR     45  39  81 W7        29.88S
WASECA         CLEAR     43  37  81 W8        29.91S
ALBERT LEA     CLEAR     46  37  71 W6        29.90S
$$
MNZ078>079-086>088-094>096-271400-
   Southeast Minnesota

CITY           SKY/WX    TMP DP  RH WIND       PRES   REMARKS
ROCHESTER      CLEAR     47  39  74 W14G22    29.86R
RED WING       CLEAR     50  39  66 W14       29.80F
DODGE CENTER   PTCLDY    46  39  76 W13       29.86S
WINONA         CLEAR     50  37  62 NW12G18   29.81S
AUSTIN           N/A     46  37  71 W9        29.88S
PRESTON        CLEAR     46  38  71 W14G21    29.86S
$$
ABBREVIATIONS USED IN REMARKS
   TC - TEMPERATURES IN CELSIUS
  WCI - WIND CHILL INDEX
   HX - HEAT INDEX
  VSB - VISIBILITY
$$



USA.gov is the U.S. government's official web portal to all federal, state and local government web resources and services.